{"data":{"norad_id":49187,"intl_designator":"2021-083B","name":"ONEWEB-0303","alt_names":[],"object_type":"PAYLOAD","status":"ACTIVE","operator":null,"country":"UK","launch_date":"2021-09-14","launch_site_code":"TYMSC","launch_vehicle":null,"mission":null,"orbit_class":"UNKNOWN","rcs_meters":null,"size_class":null,"mass_kg":null,"dimensions":null,"purposes":["comms"],"wikipedia_slug":null,"has_3d_model":false,"image_url":null,"decayed_at":null,"tle_current":{"epoch":"2026-05-25T02:03:17.140320Z","epoch_age_seconds":61683,"freshness":"FRESH","line1":"1 49187U 21083B   26145.08561505  .00000013  00000+0  14632-5 0  9995","line2":"2 49187  87.9165 340.0547 0001996  90.6805 269.4556 13.18685263226935","mean_motion":13.18685263,"eccentricity":0.0001996,"inclination_deg":87.9165,"raan_deg":340.0547,"arg_perigee_deg":90.6805,"mean_anomaly_deg":269.4556,"bstar":1.4632e-6,"rev_number":22693,"period_min":109.19967337195,"perigee_km":1188.2353971722,"apogee_km":1191.2564960445,"semimajor_km":7567.8829466084,"source":"CELESTRAK","updated_at":"2026-05-25T13:38:22.488828Z"}}}